{"data":{"norad_id":63914,"epoch":"2026-05-25T03:39:43.458048Z","epoch_age_seconds":52092,"freshness":"FRESH","line1":"1 63914U 25095AA  26145.15258632  .00010889  00000+0  40481-3 0  9999","line2":"2 63914  43.0006 104.2282 0001143 240.0958 119.9780 15.27566249 59471","mean_motion":15.27566249,"eccentricity":0.0001143,"inclination_deg":43.0006,"raan_deg":104.2282,"arg_perigee_deg":240.0958,"mean_anomaly_deg":119.978,"bstar":0.00040481,"rev_number":5947,"period_min":94.267597293582,"perigee_km":482.30603351226,"apogee_km":483.87451006659,"semimajor_km":6861.2272717894,"source":"CELESTRAK","updated_at":"2026-05-25T13:38:20.180530Z"}}